Easton, MD

5:32 AM EST on November 18, 2017 (GMT -0500)
Easton / Newnam

Weather History for KESN - May, 2013

Change the Weather History Date:

Thursday, May 16, 2013

  Actual Average Record
Temperature  
Mean Temperature 74 °F -  
Max Temperature 84 °F 76 °F 89 °F (1962)
Min Temperature 64 °F 53 °F 41 °F (1966)
Cooling Degree Days 9    
Growing Degree Days 24 (Base 50)    
Moisture  
Dew Point 62 °F    
Average Humidity 69    
Maximum Humidity 94    
Minimum Humidity 48    
Precipitation  
Precipitation 0.00 in - - ()
Sea Level Pressure  
Sea Level Pressure 29.84 in    
Wind  
Wind Speed 4 mph (WNW)    
Max Wind Speed 13 mph    
Max Gust Speed 17 mph    
Visibility 10 miles    
Events      
Averages and records for this station are not official NWS values.
T = Trace of Precipitation, MM = Missing Value Source: NWS Daily Summary

Daily Weather History Graph

Daily Weather History Graph

Search for Another Location

Airport or City:

Trip Planner

Search our weather history database for the weather conditions in past years. The results will help you decide how hot, cold, wet, or windy it might be!

Date:

Astronomy

May. 16, 2013 Rise Set
Actual Time 5:50 AM EDT 8:10 PM EDT
Civil Twilight 5:20 AM EDT 8:41 PM EDT
Nautical Twilight 4:43 AM EDT 9:18 PM EDT
Astronomical Twilight 4:03 AM EDT 9:59 PM EDT
Moon 11:20 AM EDT (5/16) 12:31 AM EDT (5/16)
Length of Visible Light 15h 20m
Length of Day
14h 19m
Waxing Crescent, 35% of the Moon is Illuminated
May 16
Waxing Crescent
May 18
First Quarter
May 25
Full
May 31
Last Quarter
Jun 8
New

Hourly Weather History & Observations

Time (EDT) Temp. Heat Index Dew Point Humidity Pressure Visibility Wind Dir Wind Speed Gust Speed Precip Events Conditions
12:06 AM 72.9 °F - 64.0 °F 74% 29.78 in 10.0 mi WSW 3.5 mph - N/A   Clear
12:26 AM 72.0 °F - 64.2 °F 77% 29.78 in 10.0 mi Calm Calm - N/A   Clear
12:46 AM 71.8 °F - 64.4 °F 77% 29.79 in 10.0 mi WSW 3.5 mph - N/A   Clear
3:47 AM 67.8 °F - 64.2 °F 88% 29.79 in 10.0 mi SW 5.8 mph - N/A   Clear
4:07 AM 68.4 °F - 64.0 °F 86% 29.79 in 10.0 mi WSW 3.5 mph - N/A   Clear
4:27 AM 68.2 °F - 63.5 °F 85% 29.78 in 10.0 mi Calm Calm - N/A   Clear
4:47 AM 67.6 °F - 63.5 °F 87% 29.78 in 10.0 mi West 3.5 mph - N/A   Clear
5:07 AM 68.0 °F - 63.0 °F 84% 29.79 in 10.0 mi West 3.5 mph - N/A   Clear
5:27 AM 67.8 °F - 62.4 °F 83% 29.79 in 10.0 mi Calm Calm - N/A   Clear
5:47 AM 68.0 °F - 61.9 °F 81% 29.80 in 10.0 mi Calm Calm - N/A   Clear
5:55 AM 66.2 °F - 60.8 °F 83% 29.80 in 10.0 mi Calm Calm - N/A   Mostly Cloudy
6:07 AM 67.1 °F - 61.5 °F 82% 29.81 in 10.0 mi Calm Calm - N/A   Clear
6:27 AM 67.3 °F - 61.2 °F 81% 29.82 in 10.0 mi Calm Calm - N/A   Clear
6:47 AM 68.9 °F - 60.6 °F 75% 29.82 in 10.0 mi Calm Calm - N/A   Clear
6:53 AM 68.0 °F - 60.8 °F 78% 29.83 in 10.0 mi Calm Calm - N/A   Mostly Cloudy
7:07 AM 69.1 °F - 60.4 °F 74% 29.83 in 10.0 mi Calm Calm - N/A   Clear
7:27 AM 71.4 °F - 61.7 °F 71% 29.84 in 10.0 mi Calm Calm - N/A   Clear
7:42 AM 74.3 °F - 62.1 °F 65% 29.84 in 10.0 mi West 3.5 mph - N/A   Clear
7:53 AM 77.0 °F - 60.8 °F 57% 29.84 in 10.0 mi West 4.6 mph - N/A   Mostly Cloudy
8:53 AM 77.0 °F - 62.6 °F 61% 29.87 in 10.0 mi West 4.6 mph - N/A   Mostly Cloudy
9:53 AM 78.8 °F - 59.0 °F 51% 29.87 in 10.0 mi NW 9.2 mph - N/A   Mostly Cloudy
10:53 AM 80.6 °F 81.5 °F 60.8 °F 51% 29.88 in 10.0 mi NW 11.5 mph - N/A   Mostly Cloudy
11:53 AM 82.4 °F 82.9 °F 60.8 °F 48% 29.87 in 10.0 mi NNW 11.5 mph - N/A   Mostly Cloudy
12:53 PM 80.6 °F 81.8 °F 62.6 °F 54% 29.88 in 10.0 mi WNW 9.2 mph - N/A   Overcast
1:47 PM 82.4 °F 83.4 °F 62.6 °F 51% 29.87 in 10.0 mi West 5.8 mph - N/A   Overcast
2:55 PM 64.4 °F - 62.6 °F 94% 29.85 in 10.0 mi West 5.8 mph - N/A   Mostly Cloudy
3:56 PM 84.2 °F 85.0 °F 62.6 °F 48% 29.85 in 10.0 mi West 8.1 mph - N/A   Scattered Clouds
4:50 PM 84.2 °F 85.0 °F 62.6 °F 48% 29.84 in 10.0 mi West 9.2 mph 17.3 mph N/A   Scattered Clouds
5:45 PM 82.4 °F 83.4 °F 62.6 °F 51% 29.85 in 10.0 mi NW 9.2 mph 17.3 mph N/A   Scattered Clouds
6:52 PM 78.8 °F - 59.0 °F 51% 29.87 in 10.0 mi NW 12.7 mph - N/A   Scattered Clouds
7:56 PM 75.2 °F - 59.0 °F 57% 29.88 in 10.0 mi WNW 5.8 mph - N/A   Scattered Clouds
8:57 PM 73.4 °F - 59.0 °F 61% 29.89 in 10.0 mi WNW 5.8 mph - N/A   Clear
10:49 PM 71.8 °F - 60.8 °F 68% 29.92 in 10.0 mi NW 6.9 mph - N/A   Clear
11:09 PM 71.2 °F - 60.8 °F 69% 29.92 in 10.0 mi WNW 5.8 mph - N/A   Clear
11:29 PM 70.7 °F - 60.8 °F 71% 29.93 in 10.0 mi WNW 6.9 mph - N/A   Clear
11:49 PM 70.7 °F - 60.8 °F 71% 29.93 in 10.0 mi NW 9.2 mph - N/A   Clear